Time,TemperatureF,DewpointF,PressureIn,WindDirection,WindDirectionDegrees,WindSpeedMPH,WindSpeedGustMPH,Humidity,HourlyPrecipIn,Conditions,Clouds,dailyrainin,SoftwareType,DateUTC
2013-02-03 00:13:00,20.3,15.0,29.96,SSW,194,0.0,0.0,81,0.00,,,0.00,weatherlink.com 1.10,2013-02-03 05:13:00,
2013-02-03 00:28:00,20.3,16.0,29.96,SSW,194,0.0,0.0,82,0.00,,,0.00,weatherlink.com 1.10,2013-02-03 05:28:00,
2013-02-03 00:43:00,20.3,16.0,29.96,SSW,194,0.0,1.0,82,0.00,,,0.00,weatherlink.com 1.10,2013-02-03 05:43:00,
2013-02-03 00:58:00,20.2,16.0,29.96,SSW,194,0.0,0.0,83,0.00,,,0.00,weatherlink.com 1.10,2013-02-03 05:58:00,
2013-02-03 01:13:00,20.1,16.0,29.96,SSW,194,0.0,0.0,83,0.00,,,0.00,weatherlink.com 1.10,2013-02-03 06:13:00,
2013-02-03 01:28:00,20.1,16.0,29.96,SSW,194,0.0,0.0,83,0.00,,,0.00,weatherlink.com 1.10,2013-02-03 06:28:00,
2013-02-03 01:43:00,20.0,16.0,29.95,SSW,194,0.0,1.0,84,0.00,,,0.00,weatherlink.com 1.10,2013-02-03 06:43:00,
2013-02-03 01:58:00,19.9,16.0,29.95,SSW,194,0.0,0.0,84,0.00,,,0.00,weatherlink.com 1.10,2013-02-03 06:58:00,
2013-02-03 02:13:00,19.8,16.0,29.95,SSW,194,0.0,0.0,85,0.00,,,0.00,weatherlink.com 1.10,2013-02-03 07:13:00,
2013-02-03 02:28:00,19.7,16.0,29.95,SSW,194,1.0,1.0,85,0.00,,,0.00,weatherlink.com 1.10,2013-02-03 07:28:00,
2013-02-03 02:43:00,19.6,16.0,29.94,SSW,194,0.0,0.0,86,0.00,,,0.00,weatherlink.com 1.10,2013-02-03 07:43:00,
2013-02-03 02:58:00,19.2,16.0,29.94,SSW,194,0.0,0.0,86,0.00,,,0.00,weatherlink.com 1.10,2013-02-03 07:58:00,
2013-02-03 03:13:00,19.0,16.0,29.93,SSW,194,0.0,0.0,86,0.00,,,0.00,weatherlink.com 1.10,2013-02-03 08:13:00,
2013-02-03 03:28:00,19.0,16.0,29.93,SSW,194,1.0,1.0,87,0.00,,,0.00,weatherlink.com 1.10,2013-02-03 08:28:00,
2013-02-03 03:43:00,19.0,16.0,29.92,SSW,194,0.0,0.0,87,0.00,,,0.00,weatherlink.com 1.10,2013-02-03 08:43:00,
2013-02-03 03:58:00,18.8,16.0,29.92,SSW,194,0.0,1.0,87,0.00,,,0.00,weatherlink.com 1.10,2013-02-03 08:58:00,
2013-02-03 04:13:00,18.4,15.0,29.91,SSW,194,0.0,0.0,87,0.00,,,0.00,weatherlink.com 1.10,2013-02-03 09:13:00,
2013-02-03 04:28:00,17.8,15.0,29.91,SSW,194,0.0,1.0,87,0.00,,,0.00,weatherlink.com 1.10,2013-02-03 09:28:00,
2013-02-03 04:43:00,17.2,14.0,29.91,SSW,194,0.0,0.0,88,0.00,,,0.00,weatherlink.com 1.10,2013-02-03 09:43:00,
2013-02-03 04:58:00,16.8,14.0,29.91,SSW,194,0.0,1.0,89,0.00,,,0.00,weatherlink.com 1.10,2013-02-03 09:58:00,
2013-02-03 05:13:00,16.6,14.0,29.91,SSW,194,0.0,0.0,89,0.00,,,0.00,weatherlink.com 1.10,2013-02-03 10:13:00,
2013-02-03 05:28:00,16.4,14.0,29.91,SSW,194,0.0,0.0,90,0.00,,,0.00,weatherlink.com 1.10,2013-02-03 10:28:00,
2013-02-03 05:43:00,16.2,14.0,29.91,SSW,194,0.0,0.0,90,0.00,,,0.00,weatherlink.com 1.10,2013-02-03 10:43:00,
2013-02-03 05:58:00,16.0,14.0,29.90,SSW,194,0.0,0.0,90,0.00,,,0.00,weatherlink.com 1.10,2013-02-03 10:58:00,
2013-02-03 06:14:00,15.4,13.0,29.90,SSW,194,0.0,1.0,90,0.00,,,0.00,weatherlink.com 1.10,2013-02-03 11:14:00,
2013-02-03 06:29:00,14.9,13.0,29.90,SSW,194,0.0,0.0,91,0.00,,,0.00,weatherlink.com 1.10,2013-02-03 11:29:00,
2013-02-03 06:59:00,14.3,12.0,29.91,SSW,194,0.0,0.0,91,0.00,,,0.00,weatherlink.com 1.10,2013-02-03 11:59:00,
2013-02-03 07:14:00,13.9,12.0,29.91,SSW,194,0.0,1.0,91,0.00,,,0.00,weatherlink.com 1.10,2013-02-03 12:14:00,
2013-02-03 07:29:00,13.6,12.0,29.90,SSW,194,0.0,0.0,91,0.00,,,0.00,weatherlink.com 1.10,2013-02-03 12:29:00,
2013-02-03 07:44:00,13.5,11.0,29.90,SSW,194,0.0,0.0,91,0.00,,,0.00,weatherlink.com 1.10,2013-02-03 12:44:00,
2013-02-03 07:59:00,15.2,13.0,29.90,ENE,60,0.0,3.0,92,0.00,,,0.00,weatherlink.com 1.10,2013-02-03 12:59:00,
2013-02-03 08:14:00,17.0,15.0,29.90,ENE,58,0.0,2.0,91,0.00,,,0.00,weatherlink.com 1.10,2013-02-03 13:14:00,
2013-02-03 08:29:00,18.2,15.0,29.91,ENE,57,0.0,3.0,88,0.00,,,0.00,weatherlink.com 1.10,2013-02-03 13:29:00,
2013-02-03 08:44:00,19.3,16.0,29.90,East,95,0.0,2.0,86,0.00,,,0.00,weatherlink.com 1.10,2013-02-03 13:44:00,
2013-02-03 08:59:00,20.3,16.0,29.91,NNE,14,1.0,7.0,82,0.00,,,0.00,weatherlink.com 1.10,2013-02-03 13:59:00,
2013-02-03 09:14:00,21.0,15.0,29.91,East,90,0.0,6.0,79,0.00,,,0.00,weatherlink.com 1.10,2013-02-03 14:14:00,
2013-02-03 09:29:00,21.8,16.0,29.91,South,176,0.0,4.0,77,0.00,,,0.00,weatherlink.com 1.10,2013-02-03 14:29:00,
2013-02-03 09:44:00,22.5,15.0,29.90,North,360,0.0,5.0,74,0.00,,,0.00,weatherlink.com 1.10,2013-02-03 14:44:00,
2013-02-03 09:59:00,22.6,15.0,29.89,North,349,0.0,6.0,73,0.00,,,0.00,weatherlink.com 1.10,2013-02-03 14:59:00,
2013-02-03 10:14:00,23.8,16.0,29.89,SE,132,4.0,4.0,72,0.00,,,0.00,weatherlink.com 1.10,2013-02-03 15:14:00,
2013-02-03 10:29:00,24.6,15.0,29.88,WNW,288,0.0,6.0,68,0.00,,,0.00,weatherlink.com 1.10,2013-02-03 15:29:00,
2013-02-03 10:44:00,24.8,15.0,29.88,NNE,13,1.0,7.0,66,0.00,,,0.00,weatherlink.com 1.10,2013-02-03 15:44:00,
2013-02-03 10:59:00,25.5,15.0,29.87,North,10,3.0,8.0,65,0.00,,,0.00,weatherlink.com 1.10,2013-02-03 15:59:00,
2013-02-03 11:14:00,26.1,15.0,29.86,ENE,65,0.0,8.0,62,0.00,,,0.00,weatherlink.com 1.10,2013-02-03 16:14:00,
2013-02-03 11:29:00,26.3,14.0,29.85,SE,137,0.0,10.0,61,0.00,,,0.00,weatherlink.com 1.10,2013-02-03 16:29:00,
2013-02-03 11:44:00,25.8,14.0,29.84,ENE,72,1.0,6.0,61,0.00,,,0.00,weatherlink.com 1.10,2013-02-03 16:44:00,
2013-02-03 11:59:00,25.6,14.0,29.83,South,183,2.0,4.0,61,0.00,,,0.00,weatherlink.com 1.10,2013-02-03 16:59:00,
2013-02-03 12:14:00,25.8,14.0,29.82,NNE,30,2.0,6.0,61,0.00,,,0.00,weatherlink.com 1.10,2013-02-03 17:14:00,
2013-02-03 12:29:00,27.1,15.0,29.81,NW,307,2.0,6.0,60,0.00,,,0.00,weatherlink.com 1.10,2013-02-03 17:29:00,
2013-02-03 12:44:00,26.3,14.0,29.80,North,360,1.0,11.0,59,0.00,,,0.00,weatherlink.com 1.10,2013-02-03 17:44:00,
2013-02-03 12:59:00,25.6,14.0,29.79,NNW,344,2.0,5.0,61,0.00,,,0.00,weatherlink.com 1.10,2013-02-03 17:59:00,
2013-02-03 13:14:00,25.8,14.0,29.77,North,10,0.0,4.0,60,0.00,,,0.00,weatherlink.com 1.10,2013-02-03 18:14:00,
2013-02-03 13:29:00,26.9,14.0,29.76,ESE,119,0.0,3.0,59,0.00,,,0.00,weatherlink.com 1.10,2013-02-03 18:29:00,
2013-02-03 13:44:00,28.3,15.0,29.75,SSE,168,0.0,3.0,57,0.00,,,0.00,weatherlink.com 1.10,2013-02-03 18:44:00,
2013-02-03 13:59:00,27.5,14.0,29.75,ENE,58,0.0,4.0,56,0.00,,,0.00,weatherlink.com 1.10,2013-02-03 18:59:00,
2013-02-03 14:14:00,27.4,14.0,29.74,NNE,29,1.0,3.0,57,0.00,,,0.00,weatherlink.com 1.10,2013-02-03 19:14:00,
2013-02-03 14:29:00,27.5,14.0,29.73,SSE,150,0.0,5.0,58,0.00,,,0.00,weatherlink.com 1.10,2013-02-03 19:29:00,
2013-02-03 14:44:00,27.6,14.0,29.74,SSE,150,1.0,2.0,57,0.00,,,0.00,weatherlink.com 1.10,2013-02-03 19:44:00,
2013-02-03 14:59:00,27.3,14.0,29.73,NNE,19,1.0,3.0,58,0.00,,,0.00,weatherlink.com 1.10,2013-02-03 19:59:00,
2013-02-03 15:14:00,27.2,14.0,29.73,NNE,20,1.0,2.0,59,0.00,,,0.00,weatherlink.com 1.10,2013-02-03 20:14:00,
2013-02-03 15:29:00,27.2,14.0,29.73,NNW,340,0.0,4.0,58,0.00,,,0.00,weatherlink.com 1.10,2013-02-03 20:29:00,
2013-02-03 15:44:00,27.1,14.0,29.73,NNW,340,0.0,0.0,59,0.00,,,0.00,weatherlink.com 1.10,2013-02-03 20:44:00,
2013-02-03 16:00:00,27.2,14.0,29.72,NNE,28,0.0,2.0,59,0.00,,,0.00,weatherlink.com 1.10,2013-02-03 21:00:00,
2013-02-03 16:14:00,27.1,14.0,29.72,NNE,28,0.0,2.0,59,0.00,,,0.00,weatherlink.com 1.10,2013-02-03 21:14:00,
2013-02-03 16:29:00,26.9,15.0,29.71,NNE,28,0.0,1.0,60,0.00,,,0.00,weatherlink.com 1.10,2013-02-03 21:29:00,
2013-02-03 16:45:00,26.7,15.0,29.71,NNE,28,0.0,3.0,61,0.00,,,0.00,weatherlink.com 1.10,2013-02-03 21:45:00,
2013-02-03 17:00:00,26.4,14.0,29.71,NNE,28,0.0,2.0,61,0.00,,,0.00,weatherlink.com 1.10,2013-02-03 22:00:00,
2013-02-03 17:15:00,26.2,15.0,29.71,NNE,28,0.0,1.0,62,0.00,,,0.00,weatherlink.com 1.10,2013-02-03 22:15:00,
2013-02-03 17:45:00,25.9,15.0,29.70,NNE,28,0.0,0.0,63,0.00,,,0.00,weatherlink.com 1.10,2013-02-03 22:45:00,
2013-02-03 18:00:00,25.8,15.0,29.70,NNE,28,0.0,0.0,65,0.00,,,0.00,weatherlink.com 1.10,2013-02-03 23:00:00,
2013-02-03 18:15:00,25.6,15.0,29.70,NNE,28,0.0,0.0,65,0.00,,,0.00,weatherlink.com 1.10,2013-02-03 23:15:00,
2013-02-03 18:30:00,25.4,16.0,29.69,NNE,28,0.0,0.0,67,0.00,,,0.00,weatherlink.com 1.10,2013-02-03 23:30:00,
2013-02-03 18:45:00,25.1,16.0,29.69,NNE,28,0.0,0.0,69,0.00,,,0.00,weatherlink.com 1.10,2013-02-03 23:45:00,
2013-02-03 19:00:00,24.9,16.0,29.70,NNE,28,0.0,0.0,70,0.00,,,0.00,weatherlink.com 1.10,2013-02-04 00:00:00,
2013-02-03 19:15:00,24.7,16.0,29.70,NNE,28,0.0,1.0,70,0.00,,,0.00,weatherlink.com 1.10,2013-02-04 00:15:00,
2013-02-03 19:30:00,24.5,16.0,29.70,NNE,28,0.0,0.0,71,0.00,,,0.00,weatherlink.com 1.10,2013-02-04 00:30:00,
2013-02-03 19:45:00,24.3,17.0,29.70,NNE,28,0.0,0.0,73,0.00,,,0.00,weatherlink.com 1.10,2013-02-04 00:45:00,
2013-02-03 20:00:00,24.2,17.0,29.70,NNE,28,0.0,0.0,73,0.00,,,0.00,weatherlink.com 1.10,2013-02-04 01:00:00,
2013-02-03 20:15:00,24.2,17.0,29.70,NNE,28,0.0,0.0,74,0.00,,,0.00,weatherlink.com 1.10,2013-02-04 01:15:00,
2013-02-03 20:45:00,24.2,17.0,29.70,NNE,28,0.0,1.0,73,0.00,,,0.00,weatherlink.com 1.10,2013-02-04 01:45:00,
2013-02-03 21:00:00,24.1,17.0,29.69,NNE,28,0.0,0.0,74,0.00,,,0.00,weatherlink.com 1.10,2013-02-04 02:00:00,
2013-02-03 21:15:00,24.0,17.0,29.69,NNE,28,0.0,1.0,74,0.00,,,0.00,weatherlink.com 1.10,2013-02-04 02:15:00,
2013-02-03 21:30:00,23.8,17.0,29.69,NNE,28,0.0,0.0,75,0.00,,,0.00,weatherlink.com 1.10,2013-02-04 02:30:00,
2013-02-03 21:45:00,23.6,17.0,29.68,NNE,28,0.0,0.0,75,0.00,,,0.00,weatherlink.com 1.10,2013-02-04 02:45:00,
2013-02-03 22:00:00,23.5,17.0,29.68,NNE,28,0.0,0.0,76,0.00,,,0.00,weatherlink.com 1.10,2013-02-04 03:00:00,
2013-02-03 22:15:00,23.3,17.0,29.67,NNE,28,0.0,0.0,78,0.00,,,0.00,weatherlink.com 1.10,2013-02-04 03:15:00,
2013-02-03 22:30:00,23.1,18.0,29.67,NNE,28,0.0,0.0,80,0.00,,,0.00,weatherlink.com 1.10,2013-02-04 03:30:00,
2013-02-03 22:45:00,22.8,17.0,29.66,NNE,28,0.0,0.0,79,0.00,,,0.00,weatherlink.com 1.10,2013-02-04 03:45:00,
2013-02-03 23:00:00,22.6,17.0,29.66,NNE,28,0.0,0.0,80,0.00,,,0.00,weatherlink.com 1.10,2013-02-04 04:00:00,
2013-02-03 23:15:00,22.3,17.0,29.65,NNE,28,0.0,0.0,80,0.00,,,0.00,weatherlink.com 1.10,2013-02-04 04:15:00,
2013-02-03 23:30:00,21.8,17.0,29.65,NNE,28,0.0,0.0,81,0.00,,,0.00,weatherlink.com 1.10,2013-02-04 04:30:00,
2013-02-03 23:45:00,21.5,17.0,29.64,NNE,28,0.0,0.0,82,0.00,,,0.00,weatherlink.com 1.10,2013-02-04 04:45:00,